Showing default

BEIDOU 1D, 30323

Orbit data source: Space-Track

BEIDOU 1D, 30323 is a payload satellite owned by CNSA (CN) in GEO that was launched on Fri, 02 Feb 2007 UTC via a CHANG ZHENG 3A launch vehicle from the Xichang Space Center, China (XSC). Payload-class satellites include a variety of spacecraft equipped with specific instruments for various scientific and technological missions. These include communications satellites like Starlink; space stations such as the ISS; scientific satellites like the Hubble; Earth observation satellites from companies like Planet Labs, Umbra, and HawkEye 360; GPS; miniature CubeSats for education and research; and military/defense satellites.

Not visible in the next 10 days
Identifier
30323, 2007-003A
Orbit
GEO
Country
Flag of CNCN / PRC
Related business
Manufacturer
CAST
Mission
Non-operational Defense Navigation
Bus & Motor
DFH-3, FY-25
Mass
2,299 kg wet, 1,300 kg dry
Launch date (UTC)
2007-02-02 (19 years ago)
Launch vehicle
CHANG ZHENG 3A
Launch site
Xichang Space Center, China (XSC)
Object type
Payload
Rocket body
Debris
Shape & HBR
Box + 2 Pan, 9.0 m
Radar Cross Section
13.998 m², Large (>1 m²)

Expand to show TLE details & history
Last TLE update: 16 hours ago

TLE from 16 hours ago
0 BEIDOU 1D
1 30323U 07003A   26125.71486882 -.00000206  00000-0  00000-0 0  9990
2 30323   9.7955  57.4002 0055037 274.3108 266.0588  0.99156085 70286
Epoch: 2026-05-05T17:09Z
TLE epoch observation values (Epoch: 2026-05-05T17:09:24.666Z)
Latitude
0.02367°
Longitude
116.21491°
Altitude
36,119.531 km
Speed
3.062 km/s
True Right ascension
15h 48m 36s
True Declination
0° 01' 25"
Sunlit
Object was in daylight at epoch
Visualization orbit readout
Latitude
Unknown
Longitude
Unknown
Altitude
Unknown
Speed
Unknown
Apparent Right ascension
Unknown
Apparent Declination
Unknown
Sunlit
N/A
Visualization observer readout
Local Sidereal Time
16:36:22
Azimuth
Unknown
Elevation
Unknown
Doppler factor
Unknown
Orbital elements
Apogee altitude
36,337.118 km
Perigee altitude
35,869.508 km
Semi-major axis
42,481.45 km
Eccentricity
0.0055
Inclination
9.7955°
RAAN
57.4002°
Arg. of periapsis
274.3108°
True anomaly
265.42992°
Mean anomaly
266.0588°
Eccentric anomaly
265.74433°
Mean motion
0.24788 °/min
Orbital period
1,452.31 mins
BSTAR
0
Loading maneuver chart data...
Computing Atmospheric mass density...
Loading historical data...
Loading historical data...
Loading historical data...
Loading historical data...
Loading historical data...
Loading historical data...
Loading historical data...

Documentation

Showing up to 5 results
|